N5COP-13 Weather Reports


time (UTC)temp
C
wind
direction
speed
KPH
gust
KPH
rain 1hr
cm
rain 24hr
cm
rain mn
cm
humidity
%
barometer
mb
20260507124656 4 288 11.3 20.9 0.00 0.00 0.00 92 1022.2
20260507124153 4 294 14.5 19.3 0.00 0.00 0.00 92 1022.0
20260507123652 4 298 17.7 19.3 0.00 0.00 0.00 92 1022.0
20260507123148 4 290 16.1 22.5 0.00 0.00 0.00 92 1021.6
20260507122644 4 289 8.0 17.7 0.00 0.00 0.00 92 1021.9
20260507122139 4 293 12.9 20.9 0.00 0.00 0.00 92 1021.6
20260507121636 4 307 17.7 20.9 0.00 0.00 0.00 92 1021.7
20260507121132 3 298 16.1 20.9 0.00 0.00 0.00 92 1021.7
20260507120628 3 311 12.9 17.7 0.00 0.00 0.00 91 1021.5
20260507120124 3 323 17.7 24.1 0.00 0.00 0.00 91 1021.7
20260507115621 3 293 16.1 25.7 0.00 0.00 0.00 91 1021.6
20260507115111 3 327 12.9 17.7 0.00 0.00 0.00 91 1021.7
20260507114607 2 304 9.7 9.7 0.00 0.00 0.00 91 1021.7
20260507114105 2 315 6.4 9.7 0.00 0.00 0.00 91 1021.6
20260507113602 1 299 9.7 9.7 0.00 0.00 0.00 90 1021.7
20260507113059 1 305 6.4 6.4 0.00 0.00 0.00 90 1021.8
20260507112557 1 263 4.8 6.4 0.00 0.00 0.00 90 1021.6
20260507112053 1 266 3.2 4.8 0.00 0.00 0.00 90 1021.5
20260507111550 1 263 3.2 4.8 0.00 0.00 0.00 89 1021.5
20260507111047 1 251 3.2 4.8 0.00 0.00 0.00 89 1021.7
20260507110543 1 318 3.2 4.8 0.00 0.00 0.00 89 1021.6
20260507110040 1 300 1.6 4.8 0.00 0.00 0.00 89 1021.7
20260507105537 2 304 3.2 6.4 0.00 0.00 0.00 89 1021.7
20260507105033 2 322 6.4 6.4 0.00 0.00 0.00 89 1021.8
20260507104531 2 316 3.2 6.4 0.00 0.00 0.00 89 1021.6
20260507104027 2 302 4.8 6.4 0.00 0.00 0.00 88 1021.5
20260507103523 2 338 6.4 6.4 0.00 0.00 0.00 88 1021.7
20260507103020 2 335 6.4 9.7 0.00 0.00 0.00 88 1021.5
20260507102516 2 326 4.8 6.4 0.00 0.00 0.00 88 1021.7
20260507102012 2 311 3.2 3.2 0.00 0.00 0.00 88 1021.8
20260507101508 2 333 1.6 4.8 0.00 0.00 0.00 88 1021.7
20260507101004 2 357 3.2 6.4 0.00 0.00 0.00 87 1021.8
20260507100456 2 336 4.8 8.0 0.00 0.00 0.00 87 1021.8
20260507095954 2 327 8.0 9.7 0.00 0.00 0.00 87 1021.7
20260507095452 2 330 9.7 14.5 0.00 0.00 0.00 87 1021.8
20260507094948 2 328 11.3 14.5 0.00 0.00 0.00 86 1021.9
20260507094444 2 229 3.2 4.8 0.00 0.00 0.00 86 1021.6
20260507093941 2 261 3.2 6.4 0.00 0.00 0.00 86 1021.6
20260507093439 2 243 3.2 3.2 0.00 0.00 0.00 85 1021.6
20260507092937 2 262 3.2 8.0 0.00 0.00 0.00 86 1021.7
20260507092433 2 265 4.8 4.8 0.00 0.00 0.00 85 1021.5
20260507091930 2 283 0.0 3.2 0.00 0.00 0.00 85 1021.6
20260507091427 3 337 3.2 3.2 0.00 0.00 0.00 84 1021.5
20260507090922 3 296 3.2 4.8 0.00 0.00 0.00 84 1021.5
20260507090419 3 358 1.6 3.2 0.00 0.00 0.00 84 1021.6
20260507085915 3 347 3.2 4.8 0.00 0.00 0.00 84 1021.6
20260507085412 3 4 3.2 3.2 0.00 0.00 0.00 83 1021.6
20260507084910 4 3 3.2 4.8 0.00 0.00 0.00 83 1021.3
20260507084406 4 6 4.8 6.4 0.00 0.00 0.00 83 1021.3
20260507083904 4 52 3.2 6.4 0.00 0.00 0.00 82 1021.2
20260507083400 5 63 3.2 6.4 0.00 0.00 0.00 82 1021.3
20260507082856 5 28 8.0 9.7 0.00 0.00 0.00 81 1021.2
20260507082352 5 19 6.4 9.7 0.00 0.00 0.00 81 1021.6
20260507081849 5 32 6.4 9.7 0.00 0.00 0.00 81 1021.3
20260507081345 5 29 8.0 8.0 0.00 0.00 0.00 80 1021.5
20260507080842 6 116 8.0 9.7 0.00 0.00 0.00 80 1021.3
20260507080338 6 89 8.0 9.7 0.00 0.00 0.00 80 1021.2
20260507075834 6 94 8.0 12.9 0.00 0.00 0.00 79 1021.0
20260507075330 6 76 9.7 11.3 0.00 0.00 0.00 78 1021.2
20260507074826 6 79 9.7 14.5 0.00 0.00 0.00 78 1021.3
20260507074324 6 63 9.7 17.7 0.00 0.00 0.00 77 1021.5
20260507073821 6 107 20.9 27.4 0.00 0.00 0.00 76 1020.9
20260507073318 6 93 8.0 14.5 0.00 0.00 0.00 75 1021.7
20260507072815 6 10 9.7 14.5 0.00 0.00 0.00 74 1022.1
20260507072312 6 27 11.3 17.7 0.00 0.00 0.00 74 1022.1
20260507071810 6 358 8.0 14.5 0.00 0.00 0.00 73 1022.3
20260507071306 6 11 9.7 17.7 0.00 0.00 0.00 72 1022.5
20260507070803 6 11 14.5 20.9 0.00 0.00 0.00 72 1022.3
20260507070300 7 15 8.0 19.3 0.00 0.00 0.00 71 1022.6
20260507065757 7 11 14.5 20.9 0.00 0.00 0.00 71 1022.2
20260507065253 7 24 11.3 19.3 0.00 0.00 0.00 70 1022.1
20260507064751 7 33 9.7 17.7 0.00 0.00 0.00 70 1022.2
20260507064249 7 13 9.7 14.5 0.00 0.00 0.00 70 1022.6
20260507063747 7 13 12.9 12.9 0.00 0.00 0.00 69 1023.0
20260507063243 7 16 11.3 14.5 0.00 0.00 0.00 69 1022.7
20260507062740 7 13 6.4 9.7 0.00 0.00 0.00 69 1022.7
20260507062237 7 4 4.8 14.5 0.00 0.00 0.00 69 1022.7
20260507061736 7 11 9.7 14.5 0.00 0.00 0.00 69 1022.7
20260507061233 7 19 9.7 14.5 0.00 0.00 0.00 69 1022.2
20260507060731 7 19 12.9 14.5 0.00 0.00 0.00 68 1022.3
20260507060227 7 36 11.3 12.9 0.00 0.00 0.00 68 1022.2
20260507055724 7 38 14.5 17.7 0.00 0.00 0.00 67 1022.2
20260507055219 7 41 16.1 20.9 0.00 0.00 0.00 67 1021.9
20260507054715 7 30 14.5 17.7 0.00 0.00 0.00 67 1021.8
20260507054213 7 66 16.1 20.9 0.00 0.00 0.00 66 1021.9
20260507053710 7 24 8.0 20.9 0.00 0.00 0.00 66 1021.5
20260507053208 7 33 11.3 17.7 0.00 0.00 0.00 66 1021.6
20260507052706 7 38 16.1 24.1 0.00 0.00 0.00 66 1021.6
20260507052202 7 41 12.9 24.1 0.00 0.00 0.00 66 1021.8
20260507051700 7 18 11.3 24.1 0.00 0.00 0.00 66 1021.9
20260507051156 7 29 8.0 22.5 0.00 0.00 0.00 65 1021.6
20260507050653 7 37 11.3 20.9 0.00 0.00 0.00 65 1021.6
20260507050150 7 43 14.5 29.0 0.00 0.00 0.00 65 1021.5
20260507045647 7 25 14.5 30.6 0.00 0.00 0.00 64 1021.6
20260507045144 8 9 20.9 37.0 0.00 0.00 0.00 63 1021.2
20260507044641 8 36 24.1 30.6 0.00 0.00 0.00 62 1021.3
20260507044137 8 27 20.9 33.8 0.00 0.00 0.00 62 1021.3
20260507043633 8 24 17.7 27.4 0.00 0.00 0.00 63 1021.3
20260507043131 8 22 27.4 29.0 0.00 0.00 0.00 63 1021.5
20260507042627 8 12 19.3 29.0 0.00 0.00 0.00 63 1021.5
20260507042121 8 31 16.1 25.7 0.00 0.00 0.00 62 1021.5
20260507041619 8 27 20.9 29.0 0.00 0.00 0.00 62 1021.2
20260507041116 8 33 16.1 37.0 0.00 0.00 0.00 62 1021.2
20260507040612 8 29 20.9 35.4 0.00 0.00 0.00 62 1021.0
20260507040103 8 39 17.7 25.7 0.00 0.00 0.00 61 1021.0
20260507035559 8 43 24.1 40.2 0.00 0.00 0.00 61 1020.6
20260507035055 8 39 20.9 40.2 0.00 0.00 0.00 61 1020.6
20260507034552 8 31 17.7 32.2 0.00 0.00 0.00 61 1020.8
20260507034050 8 26 17.7 40.2 0.00 0.00 0.00 60 1020.6
20260507033548 9 8 22.5 33.8 0.00 0.00 0.00 60 1020.7
20260507033045 9 18 19.3 37.0 0.00 0.00 0.00 60 1020.6
20260507032542 9 28 22.5 33.8 0.00 0.00 0.00 60 1020.6
20260507032038 10 23 17.7 29.0 0.00 0.00 0.00 61 1020.3
20260507031535 10 25 19.3 30.6 0.00 0.00 0.00 61 1020.7
20260507031032 9 20 24.1 25.7 0.00 0.00 0.00 61 1020.3
20260507030528 10 24 16.1 33.8 0.00 0.00 0.00 61 1020.4
20260507030027 10 15 24.1 32.2 0.00 0.00 0.00 60 1019.9
20260507025523 10 28 14.5 35.4 0.00 0.00 0.00 58 1019.9
20260507025021 11 36 30.6 35.4 0.00 0.00 0.00 56 1020.0
20260507024518 11 13 29.0 41.8 0.00 0.00 0.00 53 1019.6
20260507024015 11 21 25.7 35.4 0.00 0.00 0.00 53 1019.3
20260507023511 11 29 16.1 33.8 0.00 0.00 0.00 53 1019.3
20260507023009 12 15 17.7 32.2 0.00 0.00 0.00 52 1019.2
20260507022505 12 17 16.1 33.8 0.00 0.00 0.00 52 1019.1
20260507022000 12 7 24.1 27.4 0.00 0.00 0.00 52 1019.1
20260507021456 12 32 17.7 24.1 0.00 0.00 0.00 51 1018.5
20260507020953 12 29 14.5 24.1 0.00 0.00 0.00 51 1018.4
20260507020450 12 51 17.7 25.7 0.00 0.00 0.00 51 1018.4
20260507015947 12 11 17.7 29.0 0.00 0.00 0.00 51 1018.1
20260507015446 12 25 17.7 30.6 0.00 0.00 0.00 51 1017.9
20260507014942 12 44 8.0 20.9 0.00 0.00 0.00 51 1017.8
20260507014439 12 42 11.3 16.1 0.00 0.00 0.00 51 1017.8
20260507013935 12 70 8.0 17.7 0.00 0.00 0.00 50 1017.4
20260507013431 12 76 17.7 20.9 0.00 0.00 0.00 50 1017.2
20260507012924 12 73 9.7 25.7 0.00 0.00 0.00 50 1016.8
20260507012420 13 81 16.1 27.4 0.00 0.00 0.00 49 1016.5
20260507011917 13 87 17.7 27.4 0.00 0.00 0.00 49 1016.3
20260507011414 13 76 29.0 32.2 0.00 0.00 0.00 49 1016.1
20260507010914 13 86 24.1 35.4 0.00 0.00 0.00 49 1016.1
20260507010409 13 81 27.4 37.0 0.00 0.00 0.00 49 1016.1
20260507005907 13 85 25.7 38.6 0.00 0.00 0.00 48 1015.8
20260507005403 13 85 30.6 37.0 0.00 0.00 0.00 48 1015.6
20260507004900 14 101 35.4 43.5 0.00 0.00 0.00 47 1015.9
20260507004357 14 80 41.8 48.3 0.00 0.00 0.00 46 1015.6
20260507003854 15 86 33.8 49.9 0.00 0.00 0.00 46 1015.8
20260507003349 15 95 30.6 41.8 0.00 0.00 0.00 46 1015.3
20260507002845 15 89 37.0 38.6 0.00 0.00 0.00 46 1015.3
20260507002341 15 106 30.6 41.8 0.00 0.00 0.00 46 1015.2
20260507001839 15 99 30.6 48.3 0.00 0.00 0.00 46 1015.3
20260507001335 15 85 38.6 46.7 0.00 0.00 0.00 45 1015.0
20260507000832 15 79 41.8 46.7 0.00 0.00 0.00 44 1015.0
20260507000328 15 95 27.4 49.9 0.00 0.00 0.00 45 1014.7
20260506235824 15 78 38.6 45.1 0.00 0.00 0.00 45 1014.6
20260506235320 15 88 35.4 46.7 0.00 0.00 0.00 45 1014.9
20260506234817 15 94 41.8 48.3 0.00 0.00 0.00 44 1014.7
20260506234315 15 87 45.1 59.5 0.00 0.00 0.00 44 1014.7
20260506233812 16 84 33.8 51.5 0.00 0.00 0.00 43 1014.5
20260506233308 16 80 33.8 40.2 0.00 0.00 0.00 44 1014.5
20260506232805 16 82 38.6 48.3 0.00 0.00 0.00 43 1014.6
20260506232259 16 84 32.2 46.7 0.00 0.00 0.00 44 1014.7
20260506231751 16 75 37.0 45.1 0.00 0.00 0.00 43 1014.9
20260506231249 16 94 38.6 56.3 0.00 0.00 0.00 43 1014.6
20260506230746 16 76 37.0 45.1 0.00 0.00 0.00 43 1014.6
20260506230242 16 88 33.8 48.3 0.00 0.00 0.00 42 1014.5
20260506225734 16 89 30.6 40.2 0.00 0.00 0.00 43 1014.5
20260506225231 16 88 37.0 54.7 0.00 0.00 0.00 43 1014.5
20260506224727 16 103 35.4 49.9 0.00 0.00 0.00 43 1014.5
20260506224225 16 99 30.6 46.7 0.00 0.00 0.00 42 1014.6
20260506223721 16 79 30.6 38.6 0.00 0.00 0.00 42 1014.7
20260506223216 17 87 30.6 37.0 0.00 0.00 0.00 42 1014.7
20260506222714 16 81 33.8 46.7 0.00 0.00 0.00 42 1015.0
20260506222209 17 66 25.7 33.8 0.00 0.00 0.00 41 1014.9
20260506221707 17 83 35.4 43.5 0.00 0.00 0.00 41 1014.6
20260506221205 17 80 27.4 41.8 0.00 0.00 0.00 41 1014.7
20260506220702 17 77 27.4 45.1 0.00 0.00 0.00 41 1014.6
20260506220157 17 76 35.4 54.7 0.00 0.00 0.00 41 1014.6
20260506215654 17 92 37.0 54.7 0.00 0.00 0.00 41 1014.6
20260506215149 17 77 30.6 48.3 0.00 0.00 0.00 41 1014.9
20260506214646 17 77 27.4 49.9 0.00 0.00 0.00 41 1014.9
20260506214143 17 83 30.6 45.1 0.00 0.00 0.00 40 1014.7
20260506213642 17 80 20.9 45.1 0.00 0.00 0.00 40 1014.9
20260506213139 16 82 33.8 43.5 0.00 0.00 0.00 42 1014.7
20260506212636 17 84 45.1 48.3 0.00 0.00 0.00 39 1014.9
20260506212131 18 99 37.0 49.9 0.00 0.00 0.00 39 1014.9
20260506211627 17 89 22.5 37.0 0.00 0.00 0.00 40 1014.9
20260506211124 17 63 14.5 43.5 0.00 0.00 0.00 40 1014.9
20260506210621 17 65 17.7 45.1 0.00 0.00 0.00 41 1015.1
20260506210117 17 89 29.0 48.3 0.00 0.00 0.00 39 1014.9
20260506205614 17 78 19.3 35.4 0.00 0.00 0.00 39 1014.9
20260506205109 17 74 16.1 25.7 0.00 0.00 0.00 39 1014.9
20260506204607 17 83 24.1 37.0 0.00 0.00 0.00 39 1015.0
20260506204104 17 82 29.0 35.4 0.00 0.00 0.00 39 1014.9
20260506203602 17 109 29.0 40.2 0.00 0.00 0.00 39 1015.3
20260506203058 18 136 19.3 40.2 0.00 0.00 0.00 39 1015.2
20260506202556 18 98 12.9 27.4 0.00 0.00 0.00 39 1015.1
20260506202052 18 79 20.9 30.6 0.00 0.00 0.00 40 1015.1
20260506201550 17 110 17.7 29.0 0.00 0.00 0.00 41 1015.2
20260506201046 16 74 19.3 29.0 0.00 0.00 0.00 42 1015.1
20260506200542 16 96 11.3 35.4 0.00 0.00 0.00 41 1015.3
20260506200039 16 108 24.1 33.8 0.00 0.00 0.00 41 1015.2
20260506195536 17 36 6.4 22.5 0.00 0.00 0.00 40 1015.1
20260506195032 17 59 3.2 30.6 0.00 0.00 0.00 39 1015.2
20260506194530 17 84 20.9 37.0 0.00 0.00 0.00 40 1015.1
20260506194026 17 92 22.5 29.0 0.00 0.00 0.00 41 1015.3
20260506193524 17 190 9.7 20.9 0.00 0.00 0.00 41 1015.5
20260506193021 16 82 17.7 24.1 0.00 0.00 0.00 43 1015.3
20260506192518 16 131 17.7 41.8 0.00 0.00 0.00 42 1015.4
20260506192013 17 192 12.9 17.7 0.00 0.00 0.00 41 1015.4
20260506191510 17 30 12.9 19.3 0.00 0.00 0.00 42 1015.8
20260506191007 16 344 6.4 8.0 0.00 0.00 0.00 44 1015.5
20260506190504 15 105 12.9 24.1 0.00 0.00 0.00 44 1016.0
20260506190000 16 108 25.7 29.0 0.00 0.00 0.00 44 1016.1
20260506185457 15 84 29.0 35.4 0.00 0.00 0.00 44 1016.0
20260506184954 15 79 19.3 25.7 0.00 0.00 0.00 45 1016.1
20260506184452 15 100 25.7 32.2 0.00 0.00 0.00 44 1016.2
20260506183949 16 39 8.0 17.7 0.00 0.00 0.00 44 1016.3
20260506183444 16 82 3.2 29.0 0.00 0.00 0.00 46 1016.0
20260506182941 15 195 8.0 16.1 0.00 0.00 0.00 46 1016.2
20260506182439 15 98 17.7 30.6 0.00 0.00 0.00 45 1016.5
20260506181936 16 133 24.1 41.8 0.00 0.00 0.00 46 1016.3
20260506181433 15 127 11.3 12.9 0.00 0.00 0.00 47 1016.5
20260506180930 15 110 17.7 24.1 0.00 0.00 0.00 48 1016.9
20260506180426 13 126 14.5 29.0 0.00 0.00 0.00 48 1016.8
20260506175918 15 87 11.3 25.7 0.00 0.00 0.00 47 1016.8
20260506175414 14 70 19.3 40.2 0.00 0.00 0.00 49 1016.8
20260506174911 13 116 37.0 37.0 0.00 0.00 0.00 49 1016.8
20260506174409 15 122 22.5 33.8 0.00 0.00 0.00 49 1017.2
20260506173906 13 126 14.5 37.0 0.00 0.00 0.00 49 1017.0
20260506173403 14 112 4.8 24.1 0.00 0.00 0.00 50 1016.8
20260506172900 13 113 16.1 27.4 0.00 0.00 0.00 50 1017.2
20260506172356 13 192 12.9 19.3 0.00 0.00 0.00 50 1017.0
20260506171854 14 74 19.3 25.7 0.00 0.00 0.00 50 1017.1
20260506171350 13 92 12.9 14.5 0.00 0.00 0.00 52 1017.1
20260506170848 12 113 14.5 16.1 0.00 0.00 0.00 51 1017.1
20260506170343 13 115 22.5 37.0 0.00 0.00 0.00 51 1017.0
20260506165838 13 127 8.0 14.5 0.00 0.00 0.00 52 1017.0
20260506165335 13 107 8.0 24.1 0.00 0.00 0.00 53 1017.1
20260506164831 12 114 6.4 16.1 0.00 0.00 0.00 54 1017.1
20260506164328 12 110 27.4 33.8 0.00 0.00 0.00 54 1017.1
20260506163825 12 77 11.3 22.5 0.00 0.00 0.00 55 1017.2
20260506163320 11 139 8.0 19.3 0.00 0.00 0.00 55 1017.1
20260506162815 12 155 11.3 24.1 0.00 0.00 0.00 55 1016.8
20260506162313 11 153 6.4 19.3 0.00 0.00 0.00 56 1017.0
20260506161805 11 111 16.1 17.7 0.00 0.00 0.00 57 1017.0
20260506161302 11 139 22.5 25.7 0.00 0.00 0.00 58 1016.9
20260506160800 11 100 9.7 22.5 0.00 0.00 0.00 58 1017.0
20260506160256 11 101 19.3 29.0 0.00 0.00 0.00 58 1017.0
20260506155755 11 75 19.3 24.1 0.00 0.00 0.00 58 1016.8
20260506155251 11 106 9.7 25.7 0.00 0.00 0.00 58 1016.5
20260506153358 10 76 14.5 27.4 0.00 0.00 0.00 62 1016.5
20260506152855 10 83 14.5 27.4 0.00 0.00 0.00 62 1016.8
20260506152352 10 86 16.1 33.8 0.00 0.00 0.00 62 1016.6
20260506151851 10 114 3.2 27.4 0.00 0.00 0.00 64 1016.6
20260506151347 10 111 16.1 30.6 0.00 0.00 0.00 65 1016.5
20260506150844 9 75 12.9 24.1 0.00 0.00 0.00 66 1016.6
20260506150341 8 122 16.1 29.0 0.00 0.00 0.00 67 1016.5
20260506145838 8 110 32.2 33.8 0.00 0.00 0.00 67 1016.5
20260506145334 8 140 6.4 19.3 0.00 0.00 0.00 69 1016.4
20260506144832 8 91 11.3 17.7 0.00 0.00 0.00 70 1016.5
20260506144328 7 122 17.7 27.4 0.00 0.00 0.00 71 1016.2
20260506143827 8 110 29.0 29.0 0.00 0.00 0.00 71 1016.4
20260506143323 7 114 19.3 29.0 0.00 0.00 0.00 72 1016.2
20260506142821 7 130 17.7 29.0 0.00 0.00 0.00 72 1016.4
20260506142319 7 130 24.1 32.2 0.00 0.00 0.00 73 1016.1
20260506141817 7 112 22.5 33.8 0.00 0.00 0.00 74 1016.0
20260506141315 6 111 30.6 40.2 0.00 0.00 0.00 74 1016.0
20260506140813 6 118 29.0 38.6 0.00 0.00 0.00 74 1016.0
20260506140310 6 116 38.6 40.2 0.00 0.00 0.00 75 1016.1
20260506135807 6 125 25.7 38.6 0.00 0.00 0.00 76 1016.2
20260506135305 6 127 27.4 37.0 0.00 0.00 0.00 76 1016.0
20260506134800 6 111 29.0 40.2 0.00 0.00 0.00 77 1015.9
20260506134256 6 110 27.4 45.1 0.00 0.00 0.00 78 1015.9
20260506133753 6 123 37.0 41.8 0.00 0.00 0.00 78 1015.6
20260506133250 6 130 29.0 38.6 0.00 0.00 0.00 78 1015.9
20260506132746 6 118 27.4 38.6 0.00 0.00 0.00 78 1015.6
20260506132244 6 111 30.6 38.6 0.00 0.00 0.00 78 1015.9
20260506131742 6 115 33.8 38.6 0.00 0.00 0.00 79 1016.1
20260506131237 5 114 20.9 35.4 0.00 0.00 0.00 80 1016.2
20260506130734 5 106 29.0 33.8 0.00 0.00 0.00 81 1016.1
20260506130231 5 104 22.5 35.4 0.00 0.00 0.00 81 1016.2
20260506125729 5 104 20.9 25.7 0.00 0.00 0.00 82 1016.4
20260506125227 5 102 14.5 32.2 0.00 0.00 0.00 83 1016.3